| time (UTC) | temp C | wind direction | speed KPH | gust KPH | rain 1hr cm | rain 24hr cm | rain mn cm | humidity % | barometer mb |
| 20260503225416 | 15 | 67 | 3.2 | 4.8 | 0.00 | 0.00 | 0.00 | 71 | 1018.4 |
| 20260503224917 | 15 | 81 | 1.6 | 4.8 | 0.00 | 0.00 | 0.00 | 71 | 1018.4 |
| 20260503224419 | 15 | 72 | 1.6 | 4.8 | 0.00 | 0.00 | 0.00 | 71 | 1018.4 |
| 20260503223917 | 15 | 72 | 3.2 | 4.8 | 0.00 | 0.00 | 0.00 | 71 | 1018.4 |
| 20260503223416 | 15 | 79 | 1.6 | 4.8 | 0.00 | 0.00 | 0.00 | 71 | 1018.4 |
| 20260503222918 | 15 | 84 | 1.6 | 4.8 | 0.00 | 0.00 | 0.00 | 71 | 1018.4 |
| 20260503222416 | 15 | 78 | 1.6 | 4.8 | 0.00 | 0.00 | 0.00 | 71 | 1018.5 |
| 20260503221920 | 15 | 75 | 0.0 | 0.0 | 0.00 | 0.00 | 0.00 | 71 | 1018.5 |
| 20260503220917 | 15 | 81 | 3.2 | 4.8 | 0.00 | 0.00 | 0.00 | 71 | 1018.4 |
| 20260503220417 | 15 | 80 | 4.8 | 9.7 | 0.00 | 0.00 | 0.00 | 71 | 1018.4 |
| 20260503215917 | 16 | 88 | 3.2 | 4.8 | 0.00 | 0.00 | 0.00 | 71 | 1018.4 |
| 20260503214917 | 16 | 113 | 1.6 | 4.8 | 0.00 | 0.00 | 0.00 | 70 | 1018.4 |
| 20260503214417 | 17 | 120 | 1.6 | 4.8 | 0.00 | 0.00 | 0.00 | 70 | 1018.4 |
| 20260503213917 | 17 | 189 | 0.0 | 3.2 | 0.00 | 0.00 | 0.00 | 70 | 1018.3 |
| 20260503213417 | 17 | 258 | 1.6 | 3.2 | 0.00 | 0.00 | 0.00 | 70 | 1018.3 |
| 20260503212918 | 17 | 275 | 0.0 | 1.6 | 0.00 | 0.00 | 0.00 | 71 | 1018.3 |
| 20260503212417 | 17 | 278 | 1.6 | 3.2 | 0.00 | 0.00 | 0.00 | 71 | 1018.3 |
| 20260503211917 | 17 | 278 | 0.0 | 3.2 | 0.00 | 0.00 | 0.00 | 72 | 1018.3 |
| 20260503211417 | 17 | 278 | 1.6 | 3.2 | 0.00 | 0.00 | 0.00 | 73 | 1018.3 |
| 20260503210917 | 17 | 279 | 1.6 | 3.2 | 0.00 | 0.00 | 0.00 | 73 | 1018.3 |
| 20260503210417 | 17 | 260 | 1.6 | 4.8 | 0.00 | 0.00 | 0.00 | 73 | 1018.2 |
| 20260503205917 | 17 | 256 | 3.2 | 4.8 | 0.00 | 0.00 | 0.00 | 72 | 1018.3 |
| 20260503204418 | 17 | 278 | 1.6 | 3.2 | 0.00 | 0.00 | 0.00 | 73 | 1018.3 |
| 20260503203916 | 17 | 252 | 3.2 | 4.8 | 0.00 | 0.00 | 0.00 | 72 | 1018.2 |
| 20260503203417 | 17 | 299 | 3.2 | 4.8 | 0.00 | 0.00 | 0.00 | 70 | 1018.2 |
| 20260503202917 | 17 | 282 | 1.6 | 3.2 | 0.00 | 0.00 | 0.00 | 68 | 1018.2 |
| 20260503202418 | 17 | 212 | 1.6 | 4.8 | 0.00 | 0.00 | 0.00 | 68 | 1018.1 |
| 20260503201921 | 17 | 208 | 1.6 | 4.8 | 0.00 | 0.00 | 0.00 | 68 | 1018.1 |
| 20260503201417 | 17 | 215 | 3.2 | 4.8 | 0.00 | 0.00 | 0.00 | 68 | 1018.0 |
| 20260503200916 | 17 | 229 | 3.2 | 3.2 | 0.00 | 0.00 | 0.00 | 68 | 1018.1 |
| 20260503200417 | 17 | 228 | 3.2 | 4.8 | 0.00 | 0.00 | 0.00 | 67 | 1018.1 |
| 20260503195917 | 17 | 230 | 3.2 | 4.8 | 0.00 | 0.00 | 0.00 | 67 | 1018.0 |
| 20260503195417 | 17 | 225 | 3.2 | 4.8 | 0.00 | 0.00 | 0.00 | 68 | 1018.0 |
| 20260503194916 | 17 | 205 | 3.2 | 4.8 | 0.00 | 0.00 | 0.00 | 68 | 1018.0 |
| 20260503194418 | 17 | 227 | 3.2 | 4.8 | 0.00 | 0.00 | 0.00 | 68 | 1017.9 |
| 20260503193916 | 17 | 213 | 3.2 | 4.8 | 0.00 | 0.00 | 0.00 | 69 | 1018.0 |
| 20260503193417 | 17 | 213 | 3.2 | 4.8 | 0.00 | 0.00 | 0.00 | 69 | 1017.9 |
| 20260503192917 | 17 | 219 | 3.2 | 4.8 | 0.00 | 0.00 | 0.00 | 69 | 1017.9 |
| 20260503192417 | 17 | 232 | 3.2 | 4.8 | 0.00 | 0.00 | 0.00 | 69 | 1017.8 |
| 20260503191916 | 17 | 230 | 3.2 | 4.8 | 0.00 | 0.00 | 0.00 | 68 | 1017.9 |
| 20260503191417 | 17 | 221 | 3.2 | 4.8 | 0.00 | 0.00 | 0.00 | 67 | 1017.7 |
| 20260503185917 | 17 | 222 | 3.2 | 4.8 | 0.00 | 0.00 | 0.00 | 65 | 1017.7 |
| 20260503185417 | 18 | 221 | 3.2 | 4.8 | 0.00 | 0.00 | 0.00 | 66 | 1017.6 |
| 20260503184916 | 18 | 214 | 3.2 | 4.8 | 0.00 | 0.00 | 0.00 | 66 | 1017.6 |
| 20260503183918 | 18 | 210 | 1.6 | 4.8 | 0.00 | 0.00 | 0.00 | 67 | 1017.5 |
| 20260503183417 | 18 | 219 | 3.2 | 4.8 | 0.00 | 0.00 | 0.00 | 67 | 1017.5 |
| 20260503182916 | 18 | 215 | 4.8 | 9.7 | 0.00 | 0.00 | 0.00 | 67 | 1017.5 |
| 20260503182417 | 18 | 219 | 4.8 | 4.8 | 0.00 | 0.00 | 0.00 | 66 | 1017.4 |
| 20260503181916 | 18 | 227 | 3.2 | 4.8 | 0.00 | 0.00 | 0.00 | 63 | 1017.4 |
| 20260503180917 | 21 | 225 | 3.2 | 4.8 | 0.00 | 0.00 | 0.00 | 49 | 1017.2 |
| 20260503180416 | 21 | 216 | 1.6 | 4.8 | 0.00 | 0.00 | 0.00 | 35 | 1017.1 |
| 20260503175917 | 21 | 48 | 0.0 | 0.0 | 0.00 | 0.00 | 0.00 | 34 | 1016.9 |
| 20260503173917 | 21 | 58 | 1.6 | 4.8 | 0.00 | 0.00 | 0.00 | 34 | 1016.9 |
| 20260503173417 | 22 | 30 | 3.2 | 4.8 | 0.00 | 0.00 | 0.00 | 34 | 1016.9 |
| 20260503172917 | 22 | 50 | 1.6 | 4.8 | 0.00 | 0.00 | 0.00 | 34 | 1016.9 |
| 20260503172417 | 22 | 108 | 1.6 | 4.8 | 0.00 | 0.00 | 0.00 | 34 | 1016.9 |
| 20260503170917 | 22 | 65 | 1.6 | 4.8 | 0.00 | 0.00 | 0.00 | 33 | 1016.9 |
| 20260503170417 | 22 | 308 | 1.6 | 4.8 | 0.00 | 0.00 | 0.00 | 33 | 1016.8 |
| 20260503150916 | 22 | 318 | 3.2 | 8.0 | 0.00 | 0.00 | 0.00 | 34 | 1016.7 |
| 20260503150416 | 22 | 357 | 3.2 | 4.8 | 0.00 | 0.00 | 0.00 | 34 | 1016.7 |
| 20260503131417 | 22 | 327 | 3.2 | 4.8 | 0.00 | 0.00 | 0.00 | 38 | 1017.2 |
| 20260503130916 | 22 | 18 | 3.2 | 12.9 | 0.00 | 0.00 | 0.00 | 37 | 1017.2 |
| 20260503110417 | 22 | 305 | 4.8 | 25.7 | 0.00 | 0.00 | 0.00 | 35 | 1017.4 |
| 20260503090417 | 21 | 296 | 6.4 | 11.3 | 0.00 | 0.00 | 0.00 | 33 | 1017.7 |
| 20260503081416 | 20 | 301 | 4.8 | 16.1 | 0.00 | 0.00 | 0.00 | 36 | 1017.7 |
| 20260503080916 | 20 | 296 | 8.0 | 11.3 | 0.00 | 0.00 | 0.00 | 37 | 1017.8 |
| 20260503080416 | 20 | 298 | 6.4 | 11.3 | 0.00 | 0.00 | 0.00 | 38 | 1017.8 |
| 20260503072916 | 20 | 309 | 4.8 | 8.0 | 0.00 | 0.00 | 0.00 | 42 | 1017.9 |
| 20260503072420 | 19 | 250 | 4.8 | 4.8 | 0.00 | 0.00 | 0.00 | 42 | 1017.9 |
| 20260503071417 | 19 | 306 | 4.8 | 8.0 | 0.00 | 0.00 | 0.00 | 43 | 1017.9 |
| 20260503070916 | 19 | 308 | 1.6 | 4.8 | 0.00 | 0.00 | 0.00 | 43 | 1017.8 |
| 20260503054915 | 15 | 265 | 3.2 | 4.8 | 0.00 | 0.00 | 0.00 | 60 | 1018.0 |
| 20260503054417 | 15 | 264 | 4.8 | 12.9 | 0.00 | 0.00 | 0.00 | 59 | 1018.0 |
| 20260503053916 | 15 | 269 | 4.8 | 4.8 | 0.00 | 0.00 | 0.00 | 59 | 1018.0 |
| 20260503053416 | 15 | 254 | 4.8 | 4.8 | 0.00 | 0.00 | 0.00 | 62 | 1018.0 |
| 20260503052916 | 14 | 250 | 4.8 | 4.8 | 0.00 | 0.00 | 0.00 | 61 | 1017.9 |
| 20260503052416 | 14 | 256 | 3.2 | 4.8 | 0.00 | 0.00 | 0.00 | 62 | 1017.9 |
| 20260503051416 | 13 | 262 | 4.8 | 9.7 | 0.00 | 0.00 | 0.00 | 62 | 1017.9 |
| 20260503050916 | 13 | 244 | 4.8 | 4.8 | 0.00 | 0.00 | 0.00 | 63 | 1017.9 |
| 20260503045915 | 13 | 263 | 3.2 | 4.8 | 0.00 | 0.00 | 0.00 | 63 | 1017.9 |
| 20260503045417 | 13 | 261 | 4.8 | 4.8 | 0.00 | 0.00 | 0.00 | 64 | 1017.8 |
| 20260503044916 | 13 | 266 | 3.2 | 4.8 | 0.00 | 0.00 | 0.00 | 64 | 1017.8 |
| 20260503044421 | 13 | 266 | 4.8 | 4.8 | 0.00 | 0.00 | 0.00 | 64 | 1017.9 |
| 20260503043416 | 13 | 262 | 4.8 | 4.8 | 0.00 | 0.00 | 0.00 | 63 | 1018.0 |
| 20260503042415 | 13 | 269 | 4.8 | 4.8 | 0.00 | 0.00 | 0.00 | 63 | 1017.9 |
| 20260503041915 | 13 | 268 | 4.8 | 4.8 | 0.00 | 0.00 | 0.00 | 62 | 1017.9 |
| 20260503041416 | 13 | 255 | 3.2 | 4.8 | 0.00 | 0.00 | 0.00 | 61 | 1017.9 |
| 20260503040915 | 13 | 269 | 4.8 | 4.8 | 0.00 | 0.00 | 0.00 | 61 | 1017.9 |
| 20260503040415 | 13 | 264 | 3.2 | 9.7 | 0.00 | 0.00 | 0.00 | 61 | 1017.9 |
| 20260503035916 | 13 | 256 | 3.2 | 4.8 | 0.00 | 0.00 | 0.00 | 60 | 1017.9 |
| 20260503035415 | 13 | 261 | 4.8 | 4.8 | 0.00 | 0.00 | 0.00 | 60 | 1017.9 |
| 20260503033915 | 13 | 267 | 3.2 | 4.8 | 0.00 | 0.00 | 0.00 | 59 | 1017.9 |
| 20260503033416 | 13 | 270 | 4.8 | 4.8 | 0.00 | 0.00 | 0.00 | 60 | 1017.9 |
| 20260503032915 | 13 | 266 | 4.8 | 4.8 | 0.00 | 0.00 | 0.00 | 60 | 1017.9 |
| 20260503031915 | 13 | 264 | 4.8 | 4.8 | 0.00 | 0.00 | 0.00 | 59 | 1017.9 |
| 20260503031415 | 13 | 260 | 4.8 | 4.8 | 0.00 | 0.00 | 0.00 | 57 | 1017.9 |
| 20260503030915 | 13 | 268 | 4.8 | 4.8 | 0.00 | 0.00 | 0.00 | 57 | 1018.0 |
| 20260503030415 | 13 | 263 | 4.8 | 8.0 | 0.00 | 0.00 | 0.00 | 58 | 1018.0 |
| 20260503025916 | 13 | 267 | 4.8 | 4.8 | 0.00 | 0.00 | 0.00 | 58 | 1018.0 |
| 20260503025419 | 13 | 279 | 3.2 | 4.8 | 0.00 | 0.00 | 0.00 | 58 | 1018.0 |
| 20260503024916 | 13 | 263 | 3.2 | 4.8 | 0.00 | 0.00 | 0.00 | 58 | 1018.0 |
| 20260503024426 | 13 | 258 | 4.8 | 4.8 | 0.00 | 0.00 | 0.00 | 58 | 1018.0 |
| 20260503023916 | 13 | 258 | 3.2 | 9.7 | 0.00 | 0.00 | 0.00 | 59 | 1018.1 |
| 20260503022916 | 13 | 254 | 3.2 | 4.8 | 0.00 | 0.00 | 0.00 | 58 | 1018.1 |
| 20260503022418 | 13 | 258 | 4.8 | 8.0 | 0.00 | 0.00 | 0.00 | 58 | 1018.2 |
| 20260503021915 | 13 | 263 | 4.8 | 4.8 | 0.00 | 0.00 | 0.00 | 58 | 1018.2 |
| 20260503021415 | 13 | 268 | 4.8 | 4.8 | 0.00 | 0.00 | 0.00 | 59 | 1018.3 |
| 20260503020915 | 13 | 270 | 3.2 | 4.8 | 0.00 | 0.00 | 0.00 | 59 | 1018.4 |
| 20260503020417 | 13 | 268 | 3.2 | 4.8 | 0.00 | 0.00 | 0.00 | 60 | 1018.4 |
| 20260503015418 | 13 | 258 | 3.2 | 4.8 | 0.00 | 0.00 | 0.00 | 58 | 1018.6 |
| 20260503014916 | 13 | 246 | 4.8 | 4.8 | 0.00 | 0.00 | 0.00 | 58 | 1018.6 |
| 20260503014429 | 13 | 267 | 3.2 | 9.7 | 0.00 | 0.00 | 0.00 | 57 | 1018.6 |
| 20260503013916 | 13 | 264 | 3.2 | 4.8 | 0.00 | 0.00 | 0.00 | 57 | 1018.7 |
| 20260503012916 | 13 | 267 | 3.2 | 4.8 | 0.00 | 0.00 | 0.00 | 57 | 1018.7 |
| 20260503011916 | 13 | 271 | 3.2 | 4.8 | 0.00 | 0.00 | 0.00 | 57 | 1018.8 |
| 20260503011417 | 13 | 246 | 1.6 | 4.8 | 0.00 | 0.00 | 0.00 | 57 | 1018.8 |
| 20260503010915 | 13 | 283 | 3.2 | 4.8 | 0.00 | 0.00 | 0.00 | 58 | 1018.9 |
| 20260503005915 | 13 | 256 | 3.2 | 4.8 | 0.00 | 0.00 | 0.00 | 58 | 1019.0 |
| 20260503005416 | 13 | 253 | 3.2 | 4.8 | 0.00 | 0.00 | 0.00 | 58 | 1019.0 |
| 20260503004915 | 13 | 257 | 3.2 | 4.8 | 0.00 | 0.00 | 0.00 | 58 | 1019.1 |
| 20260503004415 | 13 | 279 | 3.2 | 4.8 | 0.00 | 0.00 | 0.00 | 57 | 1019.1 |
| 20260503003418 | 13 | 260 | 1.6 | 4.8 | 0.00 | 0.00 | 0.00 | 57 | 1019.1 |
| 20260503001915 | 13 | 280 | 3.2 | 4.8 | 0.00 | 0.00 | 0.00 | 56 | 1019.1 |
| 20260503001415 | 13 | 289 | 1.6 | 4.8 | 0.00 | 0.00 | 0.00 | 57 | 1019.1 |
| 20260503000915 | 13 | 280 | 3.2 | 8.0 | 0.00 | 0.00 | 0.00 | 57 | 1019.2 |
| 20260503000415 | 13 | 245 | 3.2 | 4.8 | 0.00 | 0.00 | 0.00 | 58 | 1019.2 |
| 20260502235916 | 13 | 289 | 3.2 | 4.8 | 0.00 | 0.00 | 0.00 | 58 | 1019.3 |
| 20260502235422 | 13 | 275 | 3.2 | 9.7 | 0.00 | 0.00 | 0.00 | 60 | 1019.3 |
| 20260502234915 | 14 | 266 | 3.2 | 4.8 | 0.00 | 0.00 | 0.00 | 60 | 1019.4 |
| 20260502234417 | 14 | 266 | 3.2 | 9.7 | 0.00 | 0.00 | 0.00 | 60 | 1019.4 |
| 20260502233915 | 14 | 270 | 4.8 | 9.7 | 0.00 | 0.03 | 0.00 | 59 | 1019.5 |
| 20260502233415 | 14 | 270 | 4.8 | 11.3 | 0.00 | 0.03 | 0.00 | 58 | 1019.6 |
| 20260502232915 | 14 | 272 | 4.8 | 4.8 | 0.00 | 0.03 | 0.00 | 57 | 1019.6 |
| 20260502232418 | 14 | 276 | 4.8 | 9.7 | 0.00 | 0.03 | 0.00 | 58 | 1019.8 |
| 20260502231915 | 15 | 266 | 4.8 | 9.7 | 0.00 | 0.03 | 0.00 | 57 | 1019.8 |
| 20260502231415 | 15 | 267 | 4.8 | 8.0 | 0.00 | 0.03 | 0.00 | 59 | 1020.0 |
| 20260502230915 | 15 | 271 | 4.8 | 8.0 | 0.00 | 0.03 | 0.00 | 60 | 1020.1 |
| 20260502230415 | 15 | 257 | 3.2 | 9.7 | 0.00 | 0.03 | 0.00 | 63 | 1020.2 |
| 20260502225917 | 15 | 263 | 4.8 | 8.0 | 0.00 | 0.03 | 0.00 | 62 | 1020.3 |